EW2785 Weather Reports


time (UTC)temp
C
wind
direction
speed
KPH
gust
KPH
rain 1hr
cm
rain 24hr
cm
rain mn
cm
humidity
%
barometer
mb
20260507083100 6 277 0.0 1.6 0.00 2.31 0.00 94 1008.8
20260507081559 6 277 0.0 0.0 0.00 2.31 0.00 94 1008.6
20260507074612 6 296 0.0 0.0 0.00 2.31 0.00 94 1008.9
20260507073056 6 296 0.0 0.0 0.00 2.31 0.00 94 1008.7
20260507071556 6 296 0.0 0.0 0.00 2.31 0.00 94 1008.4
20260507070111 6 296 0.0 0.0 0.00 2.34 0.00 94 1008.3
20260507064605 6 296 0.0 0.0 0.00 2.34 0.00 94 1008.4
20260507063059 6 296 0.0 0.0 0.00 2.34 0.00 94 1008.4
20260507061554 6 296 0.0 0.0 0.00 2.34 0.00 94 1008.3
20260507060052 5 296 0.0 0.0 0.00 2.34 0.00 94 1008.3
20260507054554 6 296 0.0 0.0 0.00 2.34 0.00 94 1008.6
20260507053051 5 296 0.0 0.0 0.00 2.34 0.00 94 1009.0
20260507051553 5 296 0.0 0.0 0.00 2.34 0.00 94 1008.9
20260507050048 5 296 0.0 1.6 0.00 2.39 0.00 94 1009.1
20260507044551 5 296 0.0 0.0 0.00 2.39 0.00 94 1009.0
20260507043049 5 296 0.0 3.2 0.00 2.39 0.00 94 1009.2
20260507041545 5 321 0.0 3.2 0.00 2.39 0.00 94 1008.7
20260507040042 5 306 0.0 0.0 0.00 2.49 2.39 94 1008.9
20260507034542 5 306 0.0 0.0 0.00 2.49 2.39 94 1008.7
20260507033044 6 306 0.0 0.0 0.00 2.49 2.39 94 1008.7
20260507031541 6 306 0.0 0.0 0.00 2.49 2.39 94 1009.0
20260507030043 6 306 0.0 0.0 0.00 2.49 2.39 94 1008.9
20260507024539 6 306 0.0 0.0 0.03 2.49 2.39 94 1009.0
20260507023038 6 306 0.0 0.0 0.05 2.49 2.39 94 1009.0
20260507021539 6 306 0.0 0.0 0.08 2.49 2.39 94 1009.3
20260507020042 6 306 0.0 0.0 0.13 2.49 2.39 94 1009.3
20260507014543 6 306 0.0 0.0 0.13 2.46 2.36 94 1009.2
20260507013047 6 306 0.0 3.2 0.10 2.44 2.34 94 1009.1
20260507011534 6 333 0.0 6.4 0.08 2.41 2.31 94 1008.9
20260507010037 6 261 1.6 6.4 0.08 2.36 2.26 94 1009.0
20260507004532 6 251 0.0 4.8 0.10 2.34 2.24 94 1008.9
20260507003031 6 246 0.0 4.8 0.10 2.34 2.24 94 1008.6
20260507001533 6 243 0.0 6.4 0.13 2.34 2.24 94 1008.3
20260507000029 6 238 0.0 8.0 0.08 2.29 2.18 94 1008.1
20260506234535 6 224 0.0 3.2 0.03 2.24 2.13 94 1008.0
20260506233046 6 274 1.6 6.4 0.05 2.24 2.13 94 1007.4
20260506231529 6 280 0.0 12.9 0.03 2.21 2.11 94 1007.2
20260506230028 6 329 1.6 8.0 0.03 2.21 2.11 94 1007.1
20260506224526 6 303 0.0 14.5 0.03 2.21 2.11 94 1007.0
20260506223024 6 242 1.6 11.3 0.00 2.18 2.08 94 1006.8
20260506221523 6 242 3.2 9.7 0.00 2.18 2.08 94 1006.7
20260506220027 6 242 3.2 11.3 0.00 2.18 2.08 94 1006.5
20260506214520 6 236 3.2 11.3 0.03 2.18 2.08 94 1006.3
20260506213018 6 252 1.6 9.7 0.05 2.18 2.08 94 1006.3
20260506211525 6 302 0.0 16.1 0.05 2.18 2.08 94 1006.3
20260506210025 6 291 1.6 9.7 0.08 2.21 2.08 94 1006.1
20260506204517 6 305 0.0 6.4 0.08 2.18 2.06 94 1006.2
20260506203016 6 269 0.0 3.2 0.10 2.16 2.03 94 1006.0
20260506201517 6 263 1.6 9.7 0.18 2.16 2.03 94 1006.1
20260506200032 6 336 1.6 8.0 0.23 2.21 2.01 94 1006.2
20260506194515 6 236 0.0 12.9 0.25 2.18 1.98 94 1006.2
20260506193013 6 5 0.0 11.3 0.23 2.13 1.93 94 1006.3
20260506191513 6 9 0.0 9.7 0.23 2.06 1.85 94 1006.2
20260506190011 6 295 0.0 12.9 0.18 1.98 1.78 94 1006.3
20260506184510 6 325 0.0 9.7 0.20 1.93 1.73 94 1006.2
20260506183010 6 342 3.2 11.3 0.25 1.91 1.70 94 1006.2
20260506181514 6 334 0.0 14.5 0.25 1.83 1.63 94 1006.4
20260506180015 6 258 0.0 12.9 0.28 1.78 1.57 94 1006.1
20260506174505 6 227 1.6 8.0 0.30 1.73 1.52 94 1006.0
20260506173004 6 243 1.6 12.9 0.33 1.65 1.42 93 1006.2
20260506171503 6 313 3.2 11.3 0.36 1.57 1.37 93 1006.7
20260506170112 6 252 3.2 8.0 0.36 1.50 1.30 93 1006.7
20260506164623 7 15 3.2 9.7 0.36 1.42 1.22 93 1006.2
20260506163103 7 339 0.0 9.7 0.33 1.32 1.12 93 1006.5
20260506161555 7 180 0.0 14.5 0.30 1.22 1.02 93 1006.7
20260506160106 7 245 3.2 11.3 0.30 1.14 0.94 93 1006.8
20260506154554 7 274 3.2 8.0 0.30 1.07 0.86 93 1006.9
20260506153051 7 334 1.6 9.7 0.30 0.99 0.79 93 1007.0
20260506151550 7 302 0.0 4.8 0.28 0.91 0.71 93 1007.2
20260506150049 7 339 1.6 9.7 0.23 0.84 0.64 93 1007.5
20260506144547 7 288 1.6 6.4 0.20 0.76 0.56 93 1007.5
20260506143046 7 265 3.2 14.5 0.20 0.69 0.48 93 1007.6
20260506141604 8 9 1.6 9.7 0.20 0.64 0.43 93 1007.3
20260506140042 8 338 4.8 12.9 0.23 0.61 0.41 93 1007.3
20260506134540 8 336 3.2 9.7 0.23 0.56 0.36 93 1007.3
20260506133037 8 234 1.6 12.9 0.18 0.48 0.28 93 1007.1
20260506131538 8 293 0.0 12.9 0.15 0.43 0.23 93 1007.3
20260506130033 10 342 3.2 12.9 0.10 0.38 0.18 93 1007.3
20260506124531 10 262 1.6 11.3 0.05 0.33 0.13 93 1007.7
20260506123036 10 297 0.0 17.7 0.00 0.28 0.08 93 1007.4
20260506121522 11 10 4.8 12.9 0.00 0.28 0.08 93 1007.2
20260506120034 11 284 1.6 8.0 0.00 0.28 0.08 93 1007.2
20260506114525 11 291 1.6 6.4 0.00 0.28 0.08 93 1007.1
20260506113020 11 268 1.6 6.4 0.00 0.28 0.08 93 1007.2
20260506111520 11 304 0.0 4.8 0.00 0.28 0.08 93 1007.2
20260506110024 11 333 0.0 3.2 0.00 0.28 0.08 93 1006.9
20260506104519 11 335 0.0 0.0 0.00 0.28 0.08 93 1006.8
20260506103026 11 335 0.0 0.0 0.00 0.28 0.08 93 1006.8
20260506101520 11 335 0.0 0.0 0.00 0.28 0.08 93 1006.7
20260506100017 11 334 0.0 1.6 0.00 0.28 0.08 93 1007.0
20260506094527 11 336 0.0 0.0 0.00 0.28 0.08 92 1006.7
20260506093023 11 336 0.0 0.0 0.00 0.28 0.08 92 1007.0
20260506091512 11 336 0.0 0.0 0.00 0.28 0.08 92 1006.9
20260506090010 12 336 0.0 0.0 0.00 0.28 0.08 92 1007.1
20260506084508 12 336 0.0 0.0 0.00 0.28 0.08 92 1007.2